[[{"header":{"parameterUnit":"m.s-1","parameterCategory":1,"la1":30.2991,"la2":30.254,"lo1":-89.0895,"lo2":-89.0444,"dy":0.0017,"dx":0.0017,"nx":28,"ny":28,"refTime":"2025-07-18T21:00:00:Z","depth":0,"parameterNumber":2,"parameterNumberName":"U-component_of_WINDS"},"data":[0,0,0,0,0,0,0,0,0,0,0,0,0,0,0,0,0,0,0,0,0,0,0,0,0,0,0,0,0,0,0,0,0,0,0,0,0,0,0,0,0,0,0,0,0,0,0,0,0,0,0,0,0,0,0,0,0,0,0.6113,0.6114,0,0.6241,0.6243,0.6244,0.6294,0.6294,0.6293,0.6293,0.6427,0.6431,0.6435,0,0,0,0,0,0,0,0,0,0,0,0,0,0.5912,0.5916,0.6113,0.6114,0.6116,0.6241,0.6243,0.6245,0.6294,0.6294,0.6293,0.6293,0.6426,0.643,0.6435,0,0,0,0,0,0,0,0,0,0,0,0,0,0.6016,0.5917,0.6112,0.6156,0.6161,0.6241,0.6243,0.6245,0.6294,0.6294,0.6293,0.6293,0.6424,0.643,0.6436,0.6483,0,0,0.6454,0.6456,0,0,0,0,0,0,0,0,0.601,0.6023,0.6148,0.6153,0.6159,0.6251,0.6221,0.6325,0.6294,0.6244,0.6293,0.6292,0.6369,0.6379,0.6405,0.6489,0.6495,0.6454,0.6458,0.646,0.6462,0,0,0,0,0,0,0,0.6003,0.6018,0.6164,0.615,0.6156,0.6169,0.6183,0.6241,0.6308,0.6248,0.6252,0.6266,0.6372,0.6399,0.6408,0.6497,0.6454,0.6459,0.6463,0.6465,0.6625,0.6626,0,0,0,0,0,0,0.5988,0.6012,0.616,0.6168,0.6081,0.6173,0.6189,0.6222,0.6307,0.632,0.6267,0.6268,0.6389,0.6401,0.6413,0.6474,0.646,0.6466,0.6469,0.6624,0.6625,0.6626,0,0,0,0,0,0,0.5984,0.6001,0.6154,0.6091,0.6111,0.6177,0.6214,0.6225,0.6252,0.6322,0.6334,0.6282,0.6389,0.6405,0.6465,0.6479,0.6468,0.6474,0.6624,0.6625,0.6626,0.6595,0,0,0,0,0,0,0.5978,0.5999,0.6017,0.6091,0.6114,0.6203,0.6215,0.6228,0.6262,0.6265,0.6339,0.6351,0.639,0.6456,0.6471,0.6487,0.6478,0.6623,0.6624,0.6625,0.6595,0.6595,0.6594,0,0,0,0,0,0.597,0.6004,0.6018,0.6035,0.6138,0.6204,0.6218,0.6261,0.6262,0.6282,0.6326,0.6349,0.6475,0.6461,0.6479,0.6497,0.6622,0.6624,0.6625,0.6595,0.6595,0.6594,0,0,0,0,0,0,0.5931,0.6014,0.6031,0.6089,0.6139,0.6212,0.6238,0.626,0.6311,0.6312,0.6365,0.6381,0.6437,0.6473,0.6456,0.6546,0.655,0.6555,0.6521,0.6521,0.6521,0.6512,0.6483,0,0,0,0,0,0.5929,0.5975,0.6045,0.609,0.6114,0.6171,0.6201,0.6231,0.6285,0.6306,0.6356,0.6408,0.6459,0.6492,0.6544,0.66,0.6617,0.6621,0.6621,0.662,0.6624,0.6657,0.6659,0.6632,0.6632,0.6632,0,0,0.5926,0.5977,0.6002,0.6083,0.6125,0.6172,0.6189,0.6237,0.6273,0.6314,0.6373,0.6411,0.6473,0.6531,0.6559,0.6563,0.6635,0.6622,0.6621,0.6626,0.6659,0.6661,0.6663,0.6633,0.6633,0.6632,0,0,0.5943,0.5986,0.6028,0.607,0.6133,0.6171,0.618,0.625,0.6277,0.6337,0.6369,0.6411,0.6499,0.6542,0.6575,0.6607,0.663,0.6623,0.6622,0.6653,0.6655,0.6657,0.6669,0.6673,0.6626,0.6626,0.6626,0,0.5931,0.6002,0.6047,0.6094,0.6128,0.6167,0.621,0.6248,0.6325,0.6348,0.6351,0.6461,0.6506,0.6574,0.6581,0.6607,0.662,0.6615,0.6651,0.6654,0.6656,0.6668,0.6672,0.6625,0.6625,0.6625,0.6625,0,0.5984,0.6033,0.6059,0.6131,0.6169,0.6213,0.6265,0.6298,0.6323,0.6361,0.6421,0.6476,0.6538,0.6557,0.6583,0.6629,0.6629,0.6641,0.6645,0.6657,0.6669,0.6674,0.6623,0.6623,0.6624,0.6624,0,0,0.5982,0.6077,0.6086,0.612,0.6192,0.623,0.6276,0.6337,0.6364,0.6415,0.6456,0.6528,0.6539,0.6576,0.6608,0.6634,0.6657,0.6643,0.6645,0.6644,0.6711,0.6702,0.6706,0.6671,0.6672,0.6673,0.6705,0,0.601,0.6093,0.6134,0.62,0.6246,0.6283,0.6323,0.6372,0.6407,0.6452,0.6492,0.6542,0.6553,0.6576,0.6604,0.6648,0.6671,0.6646,0.671,0.6712,0.6694,0.6713,0.6704,0.6731,0.671,0.6711,0.6712,0,0.6053,0.6103,0.6173,0.624,0.626,0.6296,0.6354,0.6395,0.6451,0.6476,0.6517,0.6547,0.6597,0.6597,0.6667,0.6649,0.6678,0.6703,0.6706,0.6714,0.6713,0.6722,0.6741,0.6745,0.672,0.6719,0.6719,0,0.6044,0.613,0.6183,0.621,0.6288,0.6312,0.6346,0.6401,0.6435,0.6486,0.6508,0.6565,0.6596,0.6639,0.6683,0.6679,0.6749,0.6753,0.6771,0.677,0.6785,0.6783,0.681,0.6802,0.6802,0.6802,0.6802,0,0.6071,0.6113,0.618,0.6212,0.626,0.6307,0.6353,0.639,0.6438,0.6479,0.6514,0.6552,0.6608,0.6652,0.6687,0.674,0.6754,0.6775,0.6784,0.6772,0.677,0.6792,0.6792,0.6803,0.6803,0.6803,0.6802,0,0.607,0.6116,0.6176,0.6245,0.6264,0.6296,0.6355,0.6388,0.6425,0.6476,0.6491,0.655,0.6604,0.6652,0.6724,0.6748,0.6802,0.6813,0.6783,0.6787,0.6803,0.6801,0.6845,0.6853,0.6839,0.6839,0.6839,0,0.6084,0.6117,0.6189,0.6218,0.6251,0.6298,0.6332,0.6379,0.6413,0.6479,0.6504,0.6561,0.6609,0.6693,0.6743,0.6798,0.6811,0.6822,0.682,0.6806,0.6811,0.6809,0.6813,0.6822,0.6822,0.6822,0.6822,0,0.6104,0.6125,0.6173,0.6228,0.6267,0.6313,0.6361,0.6383,0.6439,0.6475,0.6531,0.6567,0.664,0.6696,0.6756,0.6792,0.6817,0.6822,0.683,0.6818,0.68,0.681,0.6782,0.6822,0.6822,0.6822,0.6822,0.6822,0.6112,0.6142,0.6198,0.6249,0.6289,0.6332,0.6367,0.6408,0.6454,0.6517,0.6542,0.6598,0.6653,0.6736,0.6772,0.6817,0.6821,0.6832,0.6834,0.6836,0.6834,0.6792,0.6828,0.6828,0.6828,0.6828,0.6828,0,0.6134,0.6171,0.6218,0.6282,0.6323,0.6341,0.6394,0.6427,0.6475,0.6524,0.657,0.6633,0.6687,0.674,0.6797,0.6823,0.6836,0.6836,0.6835,0.6843,0.6827,0.6815,0.6825,0.6825,0.6825,0.6825,0.6825,0.6825,0.6151,0.6203,0.6231,0.6304,0.6341,0.6396,0.6424,0.6464,0.6503,0.6572,0.6617,0.665,0.6701,0.6762,0.6812,0.6826,0.6846,0.6843,0.6861,0.6845,0.6844,0.6844,0.6833,0.6847,0.6847,0.6873,0.6873,0.6874]},{"header":{"parameterUnit":"m.s-1","parameterCategory":1,"la1":30.2991,"la2":30.254,"lo1":-89.0895,"lo2":-89.0444,"dy":0.0017,"dx":0.0017,"nx":28,"ny":28,"refTime":"2025-07-18T21:00:00:Z","depth":0,"parameterNumber":3,"parameterNumberName":"V-component_of_WINDS"},"data":[0,0,0,0,0,0,0,0,0,0,0,0,0,0,0,0,0,0,0,0,0,0,0,0,0,0,0,0,0,0,0,0,0,0,0,0,0,0,0,0,0,0,0,0,0,0,0,0,0,0,0,0,0,0,0,0,0,0,5.6733,5.6732,0,5.6687,5.6686,5.6686,5.6646,5.6646,5.6645,5.6645,5.6592,5.6591,5.659,0,0,0,0,0,0,0,0,0,0,0,0,0,5.6783,5.6782,5.6733,5.6732,5.6732,5.6687,5.6686,5.6685,5.6646,5.6646,5.6645,5.6645,5.6592,5.6591,5.659,0,0,0,0,0,0,0,0,0,0,0,0,0,5.6751,5.6782,5.6733,5.6707,5.6704,5.6687,5.6686,5.6685,5.6646,5.6646,5.6645,5.6644,5.6593,5.6591,5.659,5.6593,0,0,5.6585,5.6585,0,0,0,0,0,0,0,0,5.6753,5.675,5.6711,5.6709,5.6705,5.6672,5.6684,5.6654,5.6646,5.6668,5.6645,5.6644,5.6619,5.6615,5.6608,5.6591,5.6588,5.6585,5.6584,5.6584,5.6583,0,0,0,0,0,0,0,5.6756,5.6751,5.6714,5.6711,5.6707,5.6696,5.6691,5.6679,5.6647,5.6666,5.6663,5.6658,5.6617,5.6609,5.6606,5.6588,5.6585,5.6584,5.6583,5.6582,5.6571,5.6572,0,0,0,0,0,0,5.6762,5.6753,5.6716,5.6713,5.6728,5.6696,5.669,5.6683,5.6647,5.6641,5.6659,5.6657,5.6612,5.6608,5.6604,5.6606,5.6584,5.6582,5.6581,5.6571,5.6572,5.6572,0,0,0,0,0,0,5.6764,5.6759,5.6718,5.6732,5.6726,5.6696,5.6688,5.6682,5.6675,5.6642,5.6636,5.6657,5.6611,5.6606,5.6597,5.6603,5.6581,5.658,5.657,5.6571,5.6572,5.6609,0,0,0,0,0,0,5.6765,5.676,5.6762,5.6733,5.6726,5.6713,5.6689,5.6682,5.6673,5.6669,5.6639,5.6633,5.661,5.6599,5.6595,5.6601,5.6579,5.6569,5.657,5.6572,5.6607,5.6611,5.6615,0,0,0,0,0,5.6767,5.6773,5.6762,5.6758,5.6728,5.6713,5.6709,5.6684,5.6673,5.6674,5.6654,5.6634,5.6604,5.6598,5.6594,5.6599,5.6569,5.657,5.6571,5.6605,5.661,5.6614,0,0,0,0,0,0,5.6802,5.6769,5.6756,5.6753,5.6737,5.6707,5.6707,5.669,5.6675,5.6672,5.6641,5.6634,5.6628,5.6612,5.6608,5.66,5.6583,5.6584,5.6611,5.6615,5.6619,5.6622,5.6578,0,0,0,0,0,5.6809,5.6802,5.6773,5.6773,5.6765,5.6738,5.673,5.6713,5.6694,5.6686,5.6664,5.6645,5.6631,5.6622,5.6608,5.6605,5.6597,5.6606,5.661,5.6613,5.6614,5.6611,5.6614,5.6577,5.6577,5.6577,0,0,5.6824,5.6805,5.6802,5.6779,5.6764,5.6756,5.6732,5.6724,5.6717,5.6684,5.6674,5.6658,5.6634,5.6628,5.6624,5.6615,5.6623,5.6615,5.6618,5.6616,5.6613,5.6616,5.6619,5.6578,5.6578,5.6577,0,0,5.6847,5.6832,5.6831,5.6817,5.6795,5.6777,5.6777,5.675,5.6738,5.6729,5.6704,5.6695,5.6671,5.6656,5.6644,5.6663,5.6644,5.6659,5.6678,5.6676,5.6679,5.6681,5.6687,5.669,5.666,5.666,5.666,0,5.6868,5.6855,5.6832,5.6826,5.6816,5.6789,5.6786,5.6773,5.6747,5.6741,5.6731,5.6702,5.6684,5.6674,5.6679,5.6671,5.6669,5.6662,5.6681,5.6683,5.6685,5.669,5.6692,5.6662,5.6661,5.6661,5.6661,0,5.6882,5.6874,5.6875,5.6853,5.6843,5.6839,5.6814,5.6807,5.6791,5.6774,5.6764,5.6742,5.6722,5.6719,5.6702,5.6707,5.6701,5.6687,5.6669,5.6691,5.6695,5.6697,5.6664,5.6664,5.6663,5.6663,0,0,5.6924,5.689,5.6891,5.688,5.6855,5.6848,5.6842,5.6825,5.6819,5.6803,5.6796,5.6778,5.6765,5.6752,5.6734,5.6732,5.6748,5.6717,5.6716,5.6723,5.6751,5.6762,5.6764,5.6736,5.6736,5.6736,5.6753,0,5.6942,5.6932,5.6911,5.6907,5.6899,5.6873,5.6868,5.6851,5.6835,5.6825,5.6806,5.6794,5.6778,5.677,5.6767,5.6747,5.6753,5.6745,5.6728,5.6728,5.6734,5.6767,5.6778,5.6794,5.6754,5.6754,5.6755,0,5.6961,5.6948,5.6944,5.692,5.6916,5.6912,5.6895,5.6886,5.6866,5.6855,5.6842,5.6822,5.6814,5.6799,5.6786,5.6781,5.6773,5.6762,5.6762,5.6759,5.6742,5.6763,5.6799,5.6801,5.6757,5.6757,5.6757,0,5.6992,5.6973,5.6968,5.696,5.6932,5.693,5.6918,5.6898,5.6889,5.6874,5.6868,5.6851,5.6842,5.6829,5.6805,5.6796,5.6795,5.6777,5.6783,5.6784,5.6783,5.6783,5.6817,5.678,5.678,5.678,5.678,0,5.7013,5.7012,5.6981,5.6978,5.6975,5.6951,5.6949,5.6934,5.6917,5.6909,5.6886,5.6879,5.6849,5.6838,5.6819,5.6811,5.6807,5.6797,5.6791,5.6798,5.68,5.6792,5.679,5.678,5.678,5.678,5.678,0,5.7046,5.7026,5.7019,5.6994,5.6988,5.6987,5.6964,5.696,5.6943,5.6934,5.6931,5.6904,5.689,5.6866,5.6845,5.6832,5.6828,5.6819,5.6835,5.6832,5.6839,5.6839,5.6868,5.6871,5.6833,5.6833,5.6833,0,5.7061,5.706,5.7035,5.703,5.7019,5.701,5.7002,5.6978,5.697,5.6948,5.6946,5.6931,5.6918,5.6897,5.6875,5.6859,5.6849,5.6861,5.6846,5.6854,5.6849,5.6849,5.6848,5.6864,5.6864,5.6865,5.6865,0,5.709,5.708,5.707,5.7057,5.7048,5.7036,5.7022,5.7018,5.6991,5.6983,5.697,5.696,5.694,5.6925,5.6906,5.6892,5.6873,5.687,5.687,5.6877,5.6886,5.6881,5.6843,5.6869,5.6869,5.6868,5.6868,5.6868,5.7113,5.7111,5.7094,5.7083,5.7071,5.7059,5.7054,5.7038,5.7027,5.701,5.6996,5.6984,5.6965,5.6938,5.6925,5.6914,5.6905,5.6906,5.6906,5.6907,5.6909,5.6889,5.6911,5.691,5.691,5.691,5.691,0,5.714,5.7128,5.7119,5.7102,5.7094,5.708,5.7064,5.7058,5.7048,5.7032,5.7021,5.7006,5.6992,5.6969,5.6953,5.6949,5.694,5.6945,5.6944,5.6941,5.6918,5.6919,5.6952,5.6952,5.6952,5.6952,5.6952,5.6952,5.7153,5.7149,5.7137,5.7126,5.7113,5.7103,5.7095,5.7084,5.7072,5.7057,5.7046,5.7032,5.7013,5.6996,5.6982,5.6975,5.697,5.6978,5.6969,5.6947,5.6943,5.6939,5.694,5.6977,5.6977,5.6993,5.6993,5.6993]}]]